EW4052 Weather Reports


Display with metric or nautical units.
time (UTC)temp
F
wind
direction
speed
MPH
gust
MPH
rain 1hr
in
rain 24hr
in
rain mn
in
humidity
%
barometer
mb
20260901101532 67 275 0.0 0.0 0.00 0.00 0.00 100 1012.0
20260901100025 68 275 0.0 0.0 0.00 0.00 0.00 100 1012.1
20260901094520 69 275 0.0 0.0 0.00 0.00 0.00 100 1012.0
20260901093015 70 275 0.0 0.0 0.00 0.00 0.00 100 1012.0
20260901091511 70 275 0.0 0.0 0.00 0.00 0.00 100 1011.8
20260901090012 70 275 0.0 0.0 0.00 0.00 0.00 100 1011.8
20260901084502 69 275 0.0 0.0 0.00 0.00 0.00 100 1011.7
20260901083103 69 275 0.0 0.0 0.00 0.00 0.00 100 1011.9
20260901081602 70 275 0.0 0.0 0.00 0.00 0.00 100 1012.0
20260901080100 69 275 0.0 0.0 0.00 0.00 0.00 100 1012.1
20260901074555 69 275 0.0 0.0 0.00 0.00 0.00 100 1012.2
20260901073052 70 275 0.0 0.0 0.00 0.00 0.00 100 1012.3
20260901071546 70 275 0.0 0.0 0.00 0.00 0.00 100 1012.1
20260901070050 70 275 0.0 0.0 0.00 0.00 0.00 100 1012.1
20260901064543 70 275 0.0 0.0 0.00 0.00 0.00 100 1012.2
20260901063037 70 275 0.0 0.0 0.00 0.00 0.00 100 1012.1
20260901061529 70 275 0.0 0.0 0.00 0.00 0.00 100 1012.2
20260901060025 71 275 0.0 0.0 0.00 0.00 0.00 100 1012.1
20260901054520 71 275 0.0 0.0 0.00 0.00 0.00 100 1012.1
20260901053016 71 275 0.0 0.0 0.00 0.00 0.00 100 1012.0
20260901051511 72 275 0.0 0.0 0.00 0.00 0.00 100 1012.0
20260901050007 72 275 0.0 0.0 0.00 0.00 0.00 100 1011.9
20260901044505 72 275 0.0 0.0 0.00 0.00 0.00 100 1011.9
20260901043058 72 275 0.0 0.0 0.00 0.00 0.00 100 1011.8
20260901041555 72 275 0.0 0.0 0.00 0.00 0.00 100 1011.6
20260901040049 72 275 0.0 0.0 0.00 0.00 0.00 100 1011.5
20260901034544 72 275 0.0 0.0 0.00 0.00 0.00 100 1011.4
20260901033040 72 275 0.0 0.0 0.00 0.00 0.00 100 1011.4
20260901031536 73 275 0.0 0.0 0.00 0.00 0.00 100 1011.4
20260901030039 73 275 0.0 0.0 0.00 0.00 0.00 100 1011.4
20260901024530 73 275 0.0 0.0 0.00 0.00 0.00 100 1011.4
20260901023023 73 275 0.0 0.0 0.00 0.00 0.00 100 1011.3
20260901021518 74 275 0.0 0.0 0.00 0.00 0.00 100 1011.2
20260901020013 74 275 0.0 0.0 0.00 0.00 0.00 100 1011.1
20260901014508 75 275 0.0 0.0 0.00 0.00 0.00 100 1010.9
20260901013004 76 275 0.0 0.0 0.00 0.00 0.00 100 1010.6
20260901011607 77 275 0.0 0.0 0.00 0.00 0.00 100 1010.3
20260901010056 78 275 0.0 0.0 0.00 0.00 0.00 20 1010.3
20260901004556 79 275 0.0 0.0 0.00 0.00 0.00 36 1010.2
20260901003047 80 275 0.0 0.0 0.00 0.00 0.00 47 1009.9
20260901001544 81 275 0.0 0.0 0.00 0.00 0.00 55 1010.0
20260901000044 81 275 0.0 0.0 0.00 0.00 0.00 59 1010.0
20260831234533 82 275 0.0 4.0 0.00 0.00 0.00 64 1010.1
20260831233029 83 275 3.0 7.0 0.00 0.00 0.00 65 1010.1
20260831231526 83 259 5.0 7.0 0.00 0.00 0.00 66 1010.1
20260831230020 83 252 4.0 7.0 0.00 0.00 0.00 66 1010.0
20260831224515 84 235 5.0 7.0 0.00 0.00 0.00 69 1009.9
20260831223013 83 234 4.0 8.0 0.00 0.00 0.00 67 1009.8
20260831221523 83 246 4.0 7.0 0.00 0.00 0.00 67 1009.7
20260831220006 84 250 5.0 8.0 0.00 0.00 0.00 67 1009.7
20260831214503 84 248 4.0 7.0 0.00 0.00 0.00 68 1009.6
20260831213057 84 252 6.0 8.0 0.00 0.00 0.00 68 1009.5
20260831211553 85 244 5.0 9.0 0.00 0.00 0.00 67 1009.6
20260831210048 85 248 4.0 6.0 0.00 0.00 0.00 67 1009.5
20260831204543 85 250 4.0 7.0 0.00 0.00 0.00 67 1009.4
20260831203039 84 251 3.0 9.0 0.00 0.00 0.00 67 1009.6
20260831201538 85 250 5.0 9.0 0.00 0.00 0.00 69 1009.7
20260831200039 84 250 5.0 9.0 0.00 0.00 0.00 68 1009.7
20260831194526 83 241 2.0 8.0 0.00 0.00 0.00 67 1009.7
20260831193020 83 228 5.0 10.0 0.00 0.00 0.00 66 1009.8
20260831191520 82 248 4.0 8.0 0.00 0.00 0.00 63 1009.7
20260831190014 81 260 2.0 5.0 0.00 0.00 0.00 60 1009.5
20260831184516 81 276 0.0 5.0 0.00 0.02 0.00 51 1009.4
20260831183002 81 306 0.0 0.0 0.00 0.02 0.00 49 1009.4
20260831181557 81 17 0.0 0.0 0.00 0.02 0.00 54 1008.7
20260831180053 81 17 0.0 0.0 0.00 0.02 0.00 52 1008.8
20260831174549 80 17 0.0 0.0 0.00 0.02 0.00 50 1008.5
20260831173044 80 17 0.0 5.0 0.00 0.02 0.00 63 1008.4
20260831171542 80 247 0.0 6.0 0.00 0.02 0.00 58 1009.1
20260831170035 80 240 0.0 5.0 0.00 0.02 0.00 53 1009.6
20260831164531 80 237 0.0 8.0 0.00 0.02 0.00 57 1009.8
20260831163038 81 236 4.0 9.0 0.00 0.02 0.00 60 1009.7
20260831161522 82 243 6.0 9.0 0.00 0.02 0.00 64 1009.7
20260831160033 81 233 5.0 10.0 0.00 0.02 0.00 60 1009.5
20260831154513 80 237 7.0 10.0 0.00 0.34 0.00 58 1009.4
20260831153008 80 234 4.0 9.0 0.00 0.34 0.00 60 1009.4
20260831151511 79 232 6.0 13.0 0.00 0.34 0.00 58 1009.2
20260831150100 79 219 0.0 0.0 0.00 0.34 0.00 55 1009.3
20260831144554 78 225 0.0 0.0 0.00 0.42 0.00 43 1009.1
20260831143059 77 228 0.0 0.0 0.00 0.42 0.00 27 1009.1
20260831141546 76 239 0.0 0.0 0.00 0.42 0.00 5 1009.0
20260831140042 74 200 0.0 0.0 0.00 0.42 0.00 100 1008.9
20260831134538 73 204 0.0 0.0 0.00 0.42 0.00 100 1008.8
20260831133035 71 196 0.0 0.0 0.00 0.42 0.00 100 1008.4
20260831131538 70 184 0.0 0.0 0.00 0.42 0.00 100 1008.2
20260831130034 69 148 0.0 0.0 0.00 0.42 0.00 100 1008.1
20260831124522 0 128 0.0 0.0 0.00 0.42 0.00 1007.8
20260831123021 0 147 0.0 0.0 0.00 0.42 0.00 1007.7
20260831121521 0 173 0.0 0.0 0.00 0.42 0.00 1007.6
20260831120029 0 142 0.0 0.0 0.00 0.42 0.00 1007.4
20260831114520 0 95 0.0 0.0 0.00 0.42 0.00 1007.3
20260831113020 0 150 0.0 0.0 0.00 0.42 0.00 1007.1
20260831111520 0 187 0.0 0.0 0.00 0.42 0.00 1007.2
20260831110019 0 205 0.0 0.0 0.00 0.42 0.00 1007.3
20260831104518 0 211 0.0 0.0 0.00 0.42 0.00 1007.1
20260831103014 69 134 0.0 0.0 0.00 0.42 0.00 100 1007.2